Location: *
(56.8340°N, 34.6230°W)
Time: 13:33:47
(UTC+00:00)

Daily predictions for brighter satellites

Satellite Brightness Start Highest point End
(mag) Time Altitude Azimuth Time Altitude Azimuth Time Altitude Azimuth
Cosmos 1725 Rocket 4.3 21:11:04 10° N 21:17:11 49° ENE 21:23:14 10° SE
Resurs 01 Rocket 2.4 21:14:59 10° SE 21:18:58 33° ENE 21:22:57 10° N
GP-B 3.1 21:14:48 10° S 21:19:14 85° E 21:23:43 10° N
Cosmos 1461 3.8 21:16:07 10° S 21:19:58 29° ESE 21:23:42 10° ENE
HJ-1C 3.7 21:17:00 10° S 21:20:24 75° WSW 21:23:49 10° NNW
Cosmos 1459 Rocket 4.1 21:16:44 10° N 21:23:09 83° ENE 21:29:26 10° SSE
Cosmos 1697 Rocket 2.8 21:17:47 10° SSW 21:23:17 55° ESE 21:28:49 10° NE
SL-14 R/B 4.5 21:22:46 10° N 21:25:58 24° ENE 21:29:10 10° ESE
Cosmos 1455 Rocket 3.0 21:22:03 10° S 21:26:28 82° ESE 21:30:53 10° NNE
Cosmos 2322 Rocket 3.7 21:24:08 10° SE 21:26:59 14° E 21:29:52 10° ENE
Cosmos 407 Rocket 3.9 21:26:54 10° S 21:31:48 41° ESE 21:36:40 10° NE
NOAA 11 4.3 21:26:22 10° SSE 21:31:50 86° WSW 21:37:22 10° NNW
Cosmos 1932 4.4 21:27:33 10° SW 21:33:46 80° SE 21:40:03 10° NE
Cosmos 2369 3.7 21:28:37 10° SSW 21:34:17 76° ESE 21:40:01 10° NE
Cosmos 1607 4.4 21:28:12 10° WSW 21:34:29 65° NNW 21:40:42 10° NE
CZ-2C R/B 3.8 21:30:54 10° NNE 21:35:38 74° ESE 21:40:23 10° S
Cosmos 1656 3.7 21:30:38 10° SW 21:36:13 88° NW 21:41:44 10° NE
Cosmos 2360 4.5 21:32:09 10° S 21:37:35 47° ESE 21:43:03 10° NE
Cosmos 1825 Rocket 3.9 21:34:21 10° N 21:38:37 46° ENE 21:42:55 10° SE
Cosmos 2263 Rocket 2.2 21:33:56 10° NW 21:39:34 84° NE 21:45:09 10° SE
Genesis I 3.9 21:38:20 10° NW 21:42:21 54° SW 21:46:16 10° SSE
SL-08 RB Rocket 4.4 21:38:19 10° SE 21:42:25 36° ENE 21:46:33 10° N
Meteor 1-22 Rocket 4.4 21:40:36 10° SSE 21:45:39 46° E 21:50:52 10° NNE
CZ-2C R/B 4.1 21:42:39 11° ESE 21:46:35 27° ENE 21:50:38 10° N
Cosmos 1340 2.9 21:44:41 10° SSW 21:48:28 75° WNW 21:52:18 10° NNE
USA 186 2.0 21:45:27 10° S 21:48:45 71° WSW 21:51:54 10° NNW
Cosmos 1140 Rocket 4.0 21:44:27 10° S 21:49:15 37° ESE 21:54:02 10° NE
Cosmos 2278 3.7 21:43:37 10° SSW 21:49:18 79° ESE 21:55:03 10° NE
Cosmos 1626 Rocket 4.3 21:45:56 10° NNW 21:50:19 58° W 21:54:41 10° S
ERS-1 Rocket 4.3 21:47:05 12° ESE 21:50:37 24° NE 21:54:36 10° N
Cosmos 1939 Rocket 4.0 21:47:10 10° S 21:51:06 47° W 21:55:06 10° NNW
SL-16 R/B 3.2 21:47:35 10° SSE 21:51:55 23° ESE 21:56:16 10° NE
GEOS 3 Rocket 4.2 21:48:47 11° E 21:53:31 48° NNE 21:58:27 10° NW
Cosmos 1805 3.4 21:51:50 10° S 21:55:37 51° E 21:59:26 10° NNE
Cosmos 1758 Rocket 3.6 21:51:24 10° N 21:55:54 64° ENE 22:00:22 10° SSE
Aureole 2 Rocket 3.8 21:53:28 10° SW 21:56:33 38° NW 21:59:29 10° NNE
Cosmos 1763 Rocket 4.1 21:51:48 10° NNW 21:56:56 44° NE 22:01:04 15° ESE
Spot 2 Rocket 3.8 21:52:43 10° SE 21:57:39 51° ENE 22:02:37 10° N
Cosmos 2208 Rocket 4.4 21:55:12 10° NNW 22:00:18 49° NE 22:04:20 16° ESE
Iridium 46 4.4 21:58:26 10° N 22:01:12 38° ENE 22:02:50 18° SE
Cosmos 1844 4.5 21:56:29 10° NNW 22:01:57 40° NE 22:06:14 16° ESE
USA 234 3.3 21:57:28 12° E 22:03:39 89° NNE 22:10:14 10° W
SPOT 5 4.3 22:01:08 14° E 22:03:50 22° NE 22:07:23 10° N
USA 238 DEB 4.2 21:57:43 10° S 22:03:50 37° ESE 22:10:05 10° ENE
USA 238 4.2 21:57:51 10° S 22:03:56 36° ESE 22:10:11 10° ENE
Meteor 1-4 Rocket 4.4 22:02:14 10° NNE 22:04:26 15° ENE 22:05:26 14° ENE
Cosmos 1954 Rocket 4.4 21:59:32 10° S 22:04:29 41° ESE 22:09:26 10° NE
Meteor 1-21 Rocket 4.4 21:59:09 10° N 22:04:36 53° ENE 22:09:38 12° SE
Cosmos 468 Rocket 4.2 21:59:47 10° NNW 22:05:04 61° NE 22:09:20 15° SE
Cosmos 292 Rocket 3.9 22:01:10 10° NNW 22:05:57 75° WSW 22:10:41 10° SSE
SJ-6B 3.7 22:02:24 10° S 22:06:04 48° W 22:09:44 10° NNW
Cosmos 676 Rocket 4.3 22:01:15 10° S 22:06:19 45° ESE 22:11:24 10° NE
Cosmos 389 Rocket 4.4 22:06:09 10° NNE 22:08:24 16° ENE 22:09:20 14° ENE
Cosmos 1818 3.5 22:03:54 10° SW 22:09:20 69° SE 22:14:49 10° NE
Resurs 1-3 3.6 22:08:12 10° SSE 22:12:36 85° WSW 22:17:03 10° NNW
Meteor 1-24 Rocket 4.2 22:07:24 10° NNW 22:12:45 59° W 22:17:57 10° S
Cosmos 2360 Rocket 3.6 22:15:40 16° E 22:15:40 16° E 22:18:46 10° ENE
Cosmos 2285 Rocket 4.3 22:09:39 10° S 22:15:41 46° ESE 22:21:46 10° NE
Cosmos 1953 3.3 22:15:19 21° SE 22:16:57 27° E 22:20:24 10° NNE
Cosmos 2278 Rocket 3.5 22:12:47 10° NNW 22:17:42 29° NNE 22:21:43 14° E
Cosmos 1980 Rocket 2.1 22:13:03 10° SSW 22:18:44 76° ESE 22:24:27 10° NE
Cosmos 1726 Rocket 4.1 22:15:27 12° SSE 22:19:08 37° E 22:23:08 10° NNE
Iridium 4 Rocket 3.6 22:14:18 10° S 22:19:11 80° W 22:24:37 10° N
Cosmos 2233 Rocket 4.0 22:13:39 10° N 22:19:58 79° ENE 22:26:11 10° SSE
ARGOS 3.2 22:19:44 10° SSE 22:25:09 86° WSW 22:30:35 10° NNW
ADEOS Rocket 4.1 22:21:45 10° NE 22:25:46 19° E 22:26:37 19° E
ISS -2.6 22:24:05 10° SW 22:26:54 26° SSE 22:27:11 25° SSE
EO 1 Del DPAF 4.1 22:24:13 10° NE 22:27:35 29° E 22:28:15 27° ESE
Cosmos 1844 Rocket 2.9 22:22:26 10° NNW 22:27:58 57° NE 22:31:23 23° ESE
MetOp-A 4.1 22:24:14 12° SSE 22:29:20 84° ENE 22:34:44 10° NNW
Cosmos 2369 Rocket 4.4 22:26:43 10° NW 22:30:41 19° N 22:34:40 10° NE
Cosmos 1674 4.1 22:27:15 10° NNW 22:30:47 38° W 22:34:20 10° SSW
H-2A R/B 2.2 22:26:06 10° SSE 22:31:29 81° WSW 22:36:47 10° NNW
Cosmos 2123 Rocket 3.9 22:25:48 10° S 22:31:58 84° E 22:38:13 10° NNE
Cosmos 2228 3.2 22:30:51 15° SSE 22:34:07 46° E 22:38:14 10° NNE
Cosmos 1953 Rocket 3.6 22:33:09 10° NNW 22:37:31 79° W 22:41:15 14° S
Cosmos 1943 Rocket 4.4 22:33:50 10° NW 22:37:54 20° N 22:41:58 10° NE
Cosmos 1758 3.3 22:35:52 13° S 22:39:22 59° E 22:43:19 10° NNE
Cosmos 405 4.5 22:36:19 10° NNW 22:39:34 36° W 22:42:48 10° SSW
MTI 3.5 22:37:47 10° NNE 22:40:56 73° ESE 22:43:14 17° S
SL-4 R/B 2.7 22:38:16 10° WSW 22:42:22 40° S 22:43:37 31° SE
Terra 3.0 22:41:13 23° E 22:42:49 28° ENE 22:46:51 10° N
CZ-4C R/B 4.3 22:39:06 10° WNW 22:45:13 32° WSW 22:52:00 10° S
NOSS 3-2 (C) 4.0 22:41:08 10° S 22:46:37 35° ESE 22:52:41 10° ENE
Cosmos 1626 2.0 22:44:30 10° NNW 22:48:15 89° W 22:50:02 30° S
Cosmos 1441 Rocket 3.4 22:47:42 37° SE 22:48:40 46° E 22:52:24 10° NNE
NOSS 3-2 (A) 3.7 22:48:19 10° SSW 22:54:01 48° SE 23:00:31 10° NE
Resurs 01 Rocket 2.7 22:51:07 10° S 22:55:22 44° W 22:59:39 10° NNW
IGS 5A 4.1 22:55:18 34° E 22:56:09 39° ENE 23:00:02 10° N
Cosmos 1461 3.2 22:54:29 10° WSW 22:58:52 69° NW 23:03:05 10° NE
Cosmos 1891 Rocket 4.4 22:54:40 10° N 23:00:52 67° ENE 23:04:06 29° SSE
Cosmos 1470 2.6 22:59:02 21° S 23:01:37 81° ESE 23:05:37 10° NNE
SL-14 R/B 4.2 22:58:39 10° NNW 23:02:22 46° W 23:05:04 17° SSW
Cosmos 614 Rocket 4.5 23:00:12 10° SW 23:05:22 62° NW 23:10:36 10° NNE
Cosmos 1570 Rocket 4.4 23:00:41 10° NNW 23:05:59 62° WSW 23:09:11 24° S
ATLAS 3B R/B 2.8 22:59:35 10° SSW 23:06:01 45° SE 23:12:19 10° NE
SPOT 1/Viking Rocket 3.6 23:04:09 35° SE 23:06:16 64° ENE 23:11:27 10° NNW
Cosmos 1697 Rocket 3.9 23:02:03 10° WSW 23:07:28 44° NW 23:12:54 10° NNE
IRAS Rocket 4.2 23:04:40 31° SSE 23:07:30 77° ENE 23:13:09 10° NNW
Cosmos 2058 Rocket 2.9 23:05:33 31° S 23:07:33 69° E 23:11:57 10° NNE
Cosmos 1733 3.9 23:05:31 10° SSW 23:09:19 54° WNW 23:13:09 10° N
Cosmos 2322 Rocket 2.1 23:04:26 10° SSW 23:09:57 62° ESE 23:15:32 10° NE
CENTAUR R/B 3.2 23:10:28 32° ESE 23:10:28 32° ESE 23:16:25 10° ENE
SL-19 R/B 4.5 23:09:15 10° NNE 23:12:01 44° NE 23:12:01 44° NE
Meteor 1-11 4.3 23:07:42 10° NNW 23:13:29 67° ENE 23:15:43 37° SE
Cosmos 2058 4.2 23:13:04 10° N 23:16:40 27° ENE 23:16:40 27° ENE
Cosmos 192 4.4 23:14:18 10° NNW 23:19:12 63° ENE 23:20:26 47° ESE
Cosmos 1703 3.2 23:17:01 10° N 23:20:58 64° ENE 23:21:10 63° E
Helios 1A 4.2 23:21:16 27° ENE 23:21:23 27° ENE 23:24:54 10° N
Cosmos 2263 Rocket 4.0 23:18:31 10° NW 23:22:55 24° WSW 23:27:19 10° SSW
Cosmos 1328 3.7 23:19:19 10° NNW 23:23:21 88° ENE 23:23:55 65° SSE
Cosmos 841 Rocket 3.5 23:19:40 10° NNW 23:24:57 79° WSW 23:26:48 42° SSE
CZ-2C R/B 3.2 23:23:43 31° S 23:26:10 68° WSW 23:31:04 10° NNW
Cosmos 1606 Rocket 4.4 23:24:12 10° SSW 23:28:25 50° WNW 23:32:39 10° N
Meteor 1-16 Rocket 4.2 23:26:51 42° SSE 23:28:31 60° E 23:34:04 10° NNE
ERS-1 Rocket 2.9 23:27:04 40° S 23:28:56 82° WSW 23:34:01 10° NNW
CZ-2C R/B 3.0 23:25:31 10° NNE 23:30:14 39° E 23:30:14 39° E
Cosmos 1140 Rocket 4.3 23:25:49 10° SW 23:30:57 52° NW 23:36:05 10° NNE
Cosmos 1076 Rocket 3.6 23:26:50 10° N 23:31:09 58° ENE 23:31:20 57° E
GEOS 3 Rocket 3.6 23:29:52 46° SSE 23:31:27 76° SW 23:36:39 10° NW
SL-16 R/B 2.1 23:29:41 10° SW 23:35:23 89° NW 23:41:07 10° NE
Cosmos 1763 Rocket 4.3 23:33:45 10° NW 23:38:50 46° WSW 23:41:06 29° SSW
Cosmos 2237 4.5 23:39:43 46° ESE 23:39:43 46° ESE 23:44:53 10° NE
Meteor 1-4 Rocket 2.7 23:36:27 10° NNW 23:39:41 67° WNW 23:39:41 67° WNW
Thor Agena Rocket 3.3 23:36:08 10° NNE 23:41:13 76° ESE 23:42:40 47° S
SPOT 5 2.8 23:40:22 55° S 23:41:27 86° WSW 23:46:11 10° NNW
Cosmos 389 Rocket 2.8 23:40:04 10° NNW 23:43:16 65° NW 23:43:16 65° NW
DMSP B5D2-2 4.0 23:39:24 10° NNE 23:44:39 88° W 23:47:07 33° SSW
Cosmos 1850 Rocket 4.0 23:40:04 10° SSW 23:45:20 85° WNW 23:50:36 10° NNE
Cosmos 836 Rocket 4.5 23:40:08 10° NNW 23:45:22 68° ENE 23:46:12 58° ESE
Cosmos 1844 3.9 23:40:44 10° NW 23:46:29 66° WSW 23:48:07 45° S
Cosmos 1437 Rocket 2.8 23:42:47 10° NNW 23:46:41 80° W 23:46:41 80° W
USA 234 3.3 23:44:49 43° SE 23:46:58 65° SSW 23:53:28 10° WNW
ERS-2 3.9 23:48:09 24° NE 23:48:09 24° NE 23:50:28 10° N
Cosmos 2034 Rocket 4.0 23:41:00 10° NNW 23:47:25 82° W 23:50:00 39° S
Cosmos 405 Rocket 2.8 23:48:30 75° NNE 23:48:30 75° NNE 23:52:17 10° NNE
Cosmos 540 Rocket 3.5 23:43:47 10° NNW 23:48:58 71° WSW 23:50:03 54° S
Cosmos 1464 Rocket 4.3 23:43:27 10° NNW 23:49:30 63° W 23:52:37 30° SSW
Cosmos 1953 3.5 23:50:57 22° SW 23:53:12 43° WNW 23:57:08 10° N
Landsat 7 4.1 23:54:09 50° SSW 23:55:09 63° WSW 23:59:54 10° NNW
